Time,TemperatureF,DewpointF,PressureIn,WindDirection,WindDirectionDegrees,WindSpeedMPH,WindSpeedGustMPH,Humidity,HourlyPrecipIn,Conditions,Clouds,dailyrainin,SoftwareType,DateUTC
2013-04-25 00:04:00,64.7,52.7,29.94,NNW,342,8.0,8.0,65,0.00,,,0.00,Wunderground PWS Mod,2013-04-25 04:04:00,
2013-04-25 00:14:00,64.1,52.9,29.95,North,353,7.0,30.0,67,0.00,,,0.00,Wunderground PWS Mod,2013-04-25 04:14:00,
2013-04-25 00:16:00,63.6,52.0,29.95,NNE,16,8.0,30.0,66,0.00,,,0.00,Wunderground PWS Mod,2013-04-25 04:16:00,
2013-04-25 00:18:00,63.2,50.8,29.97,NNW,338,7.0,15.0,64,0.00,,,0.00,Wunderground PWS Mod,2013-04-25 04:18:00,
2013-04-25 00:24:00,62.4,50.9,29.96,NNW,331,7.0,30.0,66,0.00,,,0.00,Wunderground PWS Mod,2013-04-25 04:24:00,
2013-04-25 00:34:00,61.6,48.4,29.98,NNW,329,8.0,30.0,62,0.00,,,0.00,Wunderground PWS Mod,2013-04-25 04:34:00,
2013-04-25 00:44:00,61.2,47.2,29.98,NNW,340,12.0,30.0,60,0.00,,,0.00,Wunderground PWS Mod,2013-04-25 04:44:00,
2013-04-25 00:46:00,60.8,43.6,29.99,NNW,338,10.0,27.0,53,0.00,,,0.00,Wunderground PWS Mod,2013-04-25 04:46:00,
2013-04-25 00:54:00,60.2,43.5,29.98,NW,312,13.0,30.0,54,0.00,,,0.00,Wunderground PWS Mod,2013-04-25 04:54:00,
2013-04-25 01:04:00,59.5,42.8,30.00,NNW,342,5.0,27.0,54,0.00,,,0.00,Wunderground PWS Mod,2013-04-25 05:04:00,
2013-04-25 01:06:00,60.8,43.6,29.99,NNW,338,10.0,27.0,53,0.00,,,0.00,Wunderground PWS Mod,2013-04-25 05:06:00,
2013-04-25 01:08:00,60.8,43.6,29.99,NNW,338,10.0,27.0,53,0.00,,,0.00,Wunderground PWS Mod,2013-04-25 05:08:00,
2013-04-25 01:10:00,60.8,43.6,29.99,NNW,338,10.0,27.0,53,0.00,,,0.00,Wunderground PWS Mod,2013-04-25 05:10:00,
2013-04-25 01:12:00,60.8,43.6,29.99,NNW,338,10.0,27.0,53,0.00,,,0.00,Wunderground PWS Mod,2013-04-25 05:12:00,
2013-04-25 01:14:00,58.1,43.4,30.01,NNW,331,5.0,27.0,58,0.00,,,0.00,Wunderground PWS Mod,2013-04-25 05:14:00,
2013-04-25 01:24:00,57.2,41.6,30.01,NNW,344,17.0,27.0,56,0.00,,,0.00,Wunderground PWS Mod,2013-04-25 05:24:00,
2013-04-25 01:33:00,56.7,39.3,30.02,North,358,7.0,27.0,52,0.00,,,0.00,Wunderground PWS Mod,2013-04-25 05:33:00,
2013-04-25 01:44:00,55.8,39.4,30.02,NNW,332,5.0,27.0,54,0.00,,,0.00,Wunderground PWS Mod,2013-04-25 05:44:00,
2013-04-25 01:48:00,55.9,40.4,30.04,NNW,338,8.0,19.0,56,0.00,,,0.00,Wunderground PWS Mod,2013-04-25 05:48:00,
2013-04-25 01:53:00,55.6,40.6,30.02,North,355,10.0,27.0,57,0.00,,,0.00,Wunderground PWS Mod,2013-04-25 05:53:00,
2013-04-25 02:04:00,55.3,39.9,30.03,North,359,5.0,22.0,56,0.00,,,0.00,Wunderground PWS Mod,2013-04-25 06:04:00,
2013-04-25 02:14:00,54.9,39.5,30.04,NNW,344,8.0,22.0,56,0.00,,,0.00,Wunderground PWS Mod,2013-04-25 06:14:00,
2013-04-25 02:18:00,54.7,38.8,30.05,North,0,9.0,19.0,55,0.00,,,0.00,Wunderground PWS Mod,2013-04-25 06:18:00,
2013-04-25 02:24:00,54.4,38.6,30.04,North,358,8.0,22.0,55,0.00,,,0.00,Wunderground PWS Mod,2013-04-25 06:24:00,
2013-04-25 02:34:00,53.7,37.9,30.05,North,357,7.0,22.0,55,0.00,,,0.00,Wunderground PWS Mod,2013-04-25 06:34:00,
2013-04-25 02:44:00,51.6,39.4,30.05,NNW,341,5.0,22.0,63,0.00,,,0.00,Wunderground PWS Mod,2013-04-25 06:44:00,
2013-04-25 02:50:00,51.7,37.4,30.07,NNW,338,8.0,20.0,58,0.01,,,0.01,Wunderground PWS Mod,2013-04-25 06:50:00,
2013-04-25 02:52:00,51.7,37.4,30.07,NNW,338,8.0,20.0,58,0.01,,,0.01,Wunderground PWS Mod,2013-04-25 06:52:00,
2013-04-25 02:53:00,50.5,38.0,30.06,NNW,340,5.0,22.0,62,0.00,,,0.00,Wunderground PWS Mod,2013-04-25 06:53:00,
2013-04-25 02:54:00,51.7,37.4,30.07,NNW,338,8.0,20.0,58,0.01,,,0.01,Wunderground PWS Mod,2013-04-25 06:54:00,
2013-04-25 03:04:00,50.9,35.7,30.07,NW,317,10.0,19.0,56,0.00,,,0.00,Wunderground PWS Mod,2013-04-25 07:04:00,
2013-04-25 03:14:00,51.1,35.5,30.07,North,3,7.0,20.0,55,0.00,,,0.00,Wunderground PWS Mod,2013-04-25 07:14:00,
2013-04-25 03:16:00,51.7,37.4,30.07,NNW,338,8.0,20.0,58,0.01,,,0.01,Wunderground PWS Mod,2013-04-25 07:16:00,
2013-04-25 03:23:00,50.9,33.9,30.08,NNW,340,7.0,20.0,52,0.00,,,0.00,Wunderground PWS Mod,2013-04-25 07:23:00,
2013-04-25 03:34:00,50.6,34.1,30.08,NW,313,17.0,20.0,53,0.00,,,0.00,Wunderground PWS Mod,2013-04-25 07:34:00,
2013-04-25 03:44:00,50.6,34.1,30.09,North,357,10.0,20.0,53,0.00,,,0.00,Wunderground PWS Mod,2013-04-25 07:44:00,
2013-04-25 03:48:00,50.5,35.4,30.10,NNW,338,8.0,19.0,56,0.00,,,0.01,Wunderground PWS Mod,2013-04-25 07:48:00,
2013-04-25 03:54:00,50.3,34.3,30.09,North,350,11.0,20.0,54,0.00,,,0.00,Wunderground PWS Mod,2013-04-25 07:54:00,
2013-04-25 04:04:00,50.1,35.0,30.10,NNW,347,8.0,19.0,56,0.00,,,0.00,Wunderground PWS Mod,2013-04-25 08:04:00,
2013-04-25 04:14:00,49.9,34.8,30.11,NNW,338,7.0,19.0,56,0.00,,,0.00,Wunderground PWS Mod,2013-04-25 08:14:00,
2013-04-25 04:18:00,49.8,35.2,30.12,NNW,338,6.0,14.0,57,0.00,,,0.01,Wunderground PWS Mod,2013-04-25 08:18:00,
2013-04-25 04:23:00,49.7,35.1,30.12,NNW,345,8.0,19.0,57,0.00,,,0.00,Wunderground PWS Mod,2013-04-25 08:23:00,
2013-04-25 04:34:00,49.6,35.0,30.12,NNW,329,7.0,19.0,57,0.00,,,0.00,Wunderground PWS Mod,2013-04-25 08:34:00,
2013-04-25 04:43:00,49.4,34.3,30.13,North,353,5.0,19.0,56,0.00,,,0.00,Wunderground PWS Mod,2013-04-25 08:43:00,
2013-04-25 04:46:00,49.8,35.2,30.12,NNW,338,6.0,14.0,57,0.00,,,0.01,Wunderground PWS Mod,2013-04-25 08:46:00,
2013-04-25 04:54:00,49.0,33.1,30.14,NNW,332,9.0,19.0,54,0.00,,,0.00,Wunderground PWS Mod,2013-04-25 08:54:00,
2013-04-25 05:03:00,48.8,32.9,30.15,NNW,337,6.0,14.0,54,0.00,,,0.00,Wunderground PWS Mod,2013-04-25 09:03:00,
2013-04-25 05:10:00,49.2,33.3,30.15,NNW,338,7.0,17.0,54,0.00,,,0.01,Wunderground PWS Mod,2013-04-25 09:10:00,
2013-04-25 05:12:00,49.2,33.3,30.15,NNW,338,7.0,17.0,54,0.00,,,0.01,Wunderground PWS Mod,2013-04-25 09:12:00,
2013-04-25 05:13:00,48.5,32.1,30.15,North,352,5.0,17.0,53,0.00,,,0.00,Wunderground PWS Mod,2013-04-25 09:13:00,
2013-04-25 05:14:00,49.2,33.3,30.15,NNW,338,7.0,17.0,54,0.00,,,0.01,Wunderground PWS Mod,2013-04-25 09:14:00,
2013-04-25 05:24:00,48.2,32.3,30.16,NNW,338,4.0,17.0,54,0.00,,,0.00,Wunderground PWS Mod,2013-04-25 09:24:00,
2013-04-25 05:33:00,47.8,31.9,30.17,North,350,3.0,17.0,54,0.00,,,0.00,Wunderground PWS Mod,2013-04-25 09:33:00,
2013-04-25 05:44:00,47.5,30.7,30.18,NNE,16,7.0,17.0,52,0.00,,,0.00,Wunderground PWS Mod,2013-04-25 09:44:00,
2013-04-25 05:50:00,47.5,30.7,30.20,North,0,7.0,16.0,52,0.00,,,0.01,Wunderground PWS Mod,2013-04-25 09:50:00,
2013-04-25 05:52:00,47.5,30.7,30.20,North,0,7.0,16.0,52,0.00,,,0.01,Wunderground PWS Mod,2013-04-25 09:52:00,
2013-04-25 05:53:00,47.2,30.0,30.19,North,10,9.0,17.0,51,0.00,,,0.00,Wunderground PWS Mod,2013-04-25 09:53:00,
2013-04-25 05:54:00,47.5,30.7,30.20,North,0,7.0,16.0,52,0.00,,,0.01,Wunderground PWS Mod,2013-04-25 09:54:00,
2013-04-25 06:04:00,47.0,30.3,30.19,North,353,5.0,13.0,52,0.00,,,0.00,Wunderground PWS Mod,2013-04-25 10:04:00,
2013-04-25 06:14:00,46.7,30.5,30.20,NNW,338,6.0,16.0,53,0.00,,,0.00,Wunderground PWS Mod,2013-04-25 10:14:00,
2013-04-25 06:16:00,47.5,30.7,30.20,North,0,7.0,16.0,52,0.00,,,0.01,Wunderground PWS Mod,2013-04-25 10:16:00,
2013-04-25 06:23:00,46.6,29.9,30.21,NNE,23,7.0,16.0,52,0.00,,,0.00,Wunderground PWS Mod,2013-04-25 10:23:00,
2013-04-25 06:34:00,46.4,30.2,30.22,North,6,5.0,16.0,53,0.00,,,0.00,Wunderground PWS Mod,2013-04-25 10:34:00,
2013-04-25 06:43:00,46.3,30.1,30.22,NNE,13,8.0,16.0,53,0.00,,,0.00,Wunderground PWS Mod,2013-04-25 10:43:00,
2013-04-25 06:46:00,46.7,30.0,30.21,North,0,7.0,16.0,52,0.00,,,0.01,Wunderground PWS Mod,2013-04-25 10:46:00,
2013-04-25 06:54:00,46.3,30.1,30.22,North,11,6.0,16.0,53,0.00,,,0.00,Wunderground PWS Mod,2013-04-25 10:54:00,
2013-04-25 07:03:00,46.4,30.6,30.23,NNW,346,6.0,16.0,54,0.00,,,0.00,Wunderground PWS Mod,2013-04-25 11:03:00,
2013-04-25 07:14:00,46.5,30.7,30.23,North,353,8.0,16.0,54,0.00,,,0.00,Wunderground PWS Mod,2013-04-25 11:14:00,
2013-04-25 07:18:00,46.5,30.3,30.23,North,0,6.0,12.0,53,0.00,,,0.01,Wunderground PWS Mod,2013-04-25 11:18:00,
2013-04-25 07:23:00,46.6,30.8,30.23,NNW,345,6.0,16.0,54,0.00,,,0.00,Wunderground PWS Mod,2013-04-25 11:23:00,
2013-04-25 07:34:00,46.8,30.6,30.24,NNE,24,11.0,16.0,53,0.00,,,0.00,Wunderground PWS Mod,2013-04-25 11:34:00,
2013-04-25 07:44:00,46.9,30.2,30.24,North,6,7.0,16.0,52,0.00,,,0.00,Wunderground PWS Mod,2013-04-25 11:44:00,
2013-04-25 07:48:00,46.9,29.2,30.24,North,0,6.0,15.0,50,0.00,,,0.01,Wunderground PWS Mod,2013-04-25 11:48:00,
2013-04-25 07:54:00,47.0,30.3,30.24,NNW,348,5.0,16.0,52,0.00,,,0.00,Wunderground PWS Mod,2013-04-25 11:54:00,
2013-04-25 08:03:00,47.0,29.3,30.24,North,3,10.0,12.0,50,0.00,,,0.00,Wunderground PWS Mod,2013-04-25 12:03:00,
2013-04-25 08:14:00,47.4,29.7,30.24,North,354,5.0,15.0,50,0.00,,,0.00,Wunderground PWS Mod,2013-04-25 12:14:00,
2013-04-25 08:20:00,47.4,29.7,30.25,North,0,6.0,16.0,50,0.00,,,0.01,Wunderground PWS Mod,2013-04-25 12:20:00,
2013-04-25 08:22:00,47.4,29.7,30.25,North,0,6.0,16.0,50,0.00,,,0.01,Wunderground PWS Mod,2013-04-25 12:22:00,
2013-04-25 08:24:00,47.5,29.8,30.25,North,0,7.0,15.0,50,0.00,,,0.00,Wunderground PWS Mod,2013-04-25 12:24:00,
2013-04-25 08:33:00,48.1,30.3,30.25,North,358,4.0,15.0,50,0.00,,,0.00,Wunderground PWS Mod,2013-04-25 12:33:00,
2013-04-25 08:44:00,48.4,29.6,30.25,North,9,5.0,16.0,48,0.00,,,0.00,Wunderground PWS Mod,2013-04-25 12:44:00,
2013-04-25 08:48:00,48.4,29.6,30.26,North,0,6.0,15.0,48,0.00,,,0.01,Wunderground PWS Mod,2013-04-25 12:48:00,
2013-04-25 08:53:00,48.5,30.2,30.25,North,5,4.0,16.0,49,0.00,,,0.00,Wunderground PWS Mod,2013-04-25 12:53:00,
2013-04-25 09:04:00,48.7,29.9,30.26,NNW,337,5.0,16.0,48,0.00,,,0.00,Wunderground PWS Mod,2013-04-25 13:04:00,
2013-04-25 09:14:00,49.1,29.7,30.26,NNE,21,7.0,16.0,47,0.00,,,0.00,Wunderground PWS Mod,2013-04-25 13:14:00,
2013-04-25 09:20:00,49.1,29.2,30.26,NNE,23,6.0,16.0,46,0.00,,,0.01,Wunderground PWS Mod,2013-04-25 13:20:00,
2013-04-25 09:22:00,49.1,29.2,30.26,NNE,23,6.0,16.0,46,0.00,,,0.01,Wunderground PWS Mod,2013-04-25 13:22:00,
2013-04-25 09:23:00,49.2,30.3,30.26,North,6,6.0,16.0,48,0.00,,,0.00,Wunderground PWS Mod,2013-04-25 13:23:00,
2013-04-25 09:24:00,49.1,29.2,30.26,NNE,23,6.0,16.0,46,0.00,,,0.01,Wunderground PWS Mod,2013-04-25 13:24:00,
2013-04-25 09:34:00,49.3,29.9,30.25,North,1,4.0,16.0,47,0.00,,,0.00,Wunderground PWS Mod,2013-04-25 13:34:00,
2013-04-25 09:43:00,49.7,31.3,30.26,NE,39,3.0,16.0,49,0.00,,,0.00,Wunderground PWS Mod,2013-04-25 13:43:00,
2013-04-25 09:46:00,49.1,29.2,30.26,NNE,23,6.0,16.0,46,0.00,,,0.01,Wunderground PWS Mod,2013-04-25 13:46:00,
2013-04-25 09:54:00,50.3,30.3,30.26,NNE,21,5.0,16.0,46,0.00,,,0.00,Wunderground PWS Mod,2013-04-25 13:54:00,
2013-04-25 10:03:00,50.9,29.7,30.26,NE,55,3.0,16.0,44,0.00,,,0.00,Wunderground PWS Mod,2013-04-25 14:03:00,
2013-04-25 10:13:00,51.2,30.0,30.26,NNE,25,4.0,16.0,44,0.00,,,0.00,Wunderground PWS Mod,2013-04-25 14:13:00,
2013-04-25 10:16:00,50.1,29.0,30.26,NNE,23,5.0,14.0,44,0.00,,,0.01,Wunderground PWS Mod,2013-04-25 14:16:00,
2013-04-25 10:24:00,51.2,31.1,30.26,NNE,24,5.0,16.0,46,0.00,,,0.00,Wunderground PWS Mod,2013-04-25 14:24:00,
2013-04-25 10:33:00,52.0,30.7,30.26,NNE,24,7.0,16.0,44,0.00,,,0.00,Wunderground PWS Mod,2013-04-25 14:33:00,
2013-04-25 10:44:00,51.9,29.5,30.27,NW,315,2.0,16.0,42,0.00,,,0.00,Wunderground PWS Mod,2013-04-25 14:44:00,
2013-04-25 10:48:00,52.1,29.7,30.27,NNE,23,5.0,12.0,42,0.00,,,0.01,Wunderground PWS Mod,2013-04-25 14:48:00,
2013-04-25 10:53:00,52.0,29.0,30.27,North,7,4.0,16.0,41,0.00,,,0.00,Wunderground PWS Mod,2013-04-25 14:53:00,
2013-04-25 11:04:00,52.8,29.7,30.26,NW,310,4.0,15.0,41,0.00,,,0.00,Wunderground PWS Mod,2013-04-25 15:04:00,
2013-04-25 11:14:00,53.4,29.7,30.26,NNE,16,11.0,15.0,40,0.00,,,0.00,Wunderground PWS Mod,2013-04-25 15:14:00,
2013-04-25 11:20:00,53.2,28.9,30.26,NNE,23,4.0,14.0,39,0.00,,,0.01,Wunderground PWS Mod,2013-04-25 15:20:00,
2013-04-25 11:22:00,53.2,28.9,30.26,NNE,23,4.0,14.0,39,0.00,,,0.01,Wunderground PWS Mod,2013-04-25 15:22:00,
2013-04-25 11:23:00,53.2,29.5,30.26,NNE,27,2.0,15.0,40,0.00,,,0.00,Wunderground PWS Mod,2013-04-25 15:23:00,
2013-04-25 11:24:00,53.2,28.9,30.26,NNE,23,4.0,14.0,39,0.00,,,0.01,Wunderground PWS Mod,2013-04-25 15:24:00,
2013-04-25 11:34:00,53.8,30.0,30.26,NNE,28,3.0,15.0,40,0.00,,,0.00,Wunderground PWS Mod,2013-04-25 15:34:00,
2013-04-25 11:44:00,54.8,30.9,30.26,NW,314,3.0,15.0,40,0.00,,,0.00,Wunderground PWS Mod,2013-04-25 15:44:00,
2013-04-25 11:46:00,53.2,28.9,30.26,NNE,23,4.0,14.0,39,0.00,,,0.01,Wunderground PWS Mod,2013-04-25 15:46:00,
2013-04-25 11:54:00,55.3,28.8,30.25,NNE,15,7.0,15.0,36,0.00,,,0.00,Wunderground PWS Mod,2013-04-25 15:54:00,
2013-04-25 12:04:00,55.0,29.8,30.25,NNW,339,6.0,14.0,38,0.00,,,0.00,Wunderground PWS Mod,2013-04-25 16:04:00,
2013-04-25 12:14:00,55.1,28.6,30.25,NW,314,2.0,14.0,36,0.00,,,0.00,Wunderground PWS Mod,2013-04-25 16:14:00,
2013-04-25 12:16:00,54.7,28.9,30.25,NNE,23,4.0,11.0,37,0.00,,,0.01,Wunderground PWS Mod,2013-04-25 16:16:00,
2013-04-25 12:23:00,56.2,29.6,30.25,North,356,4.0,14.0,36,0.00,,,0.00,Wunderground PWS Mod,2013-04-25 16:23:00,
2013-04-25 12:34:00,56.0,30.7,30.24,NNE,21,2.0,14.0,38,0.00,,,0.00,Wunderground PWS Mod,2013-04-25 16:34:00,
2013-04-25 12:44:00,56.3,28.3,30.24,NW,306,1.0,14.0,34,0.00,,,0.00,Wunderground PWS Mod,2013-04-25 16:44:00,
2013-04-25 12:48:00,56.8,28.0,30.24,NW,315,3.0,10.0,33,0.00,,,0.01,Wunderground PWS Mod,2013-04-25 16:48:00,
2013-04-25 12:54:00,57.4,29.2,30.24,WNW,299,2.0,14.0,34,0.00,,,0.00,Wunderground PWS Mod,2013-04-25 16:54:00,
2013-04-25 13:03:00,57.7,28.8,30.24,NNW,343,7.0,12.0,33,0.00,,,0.00,Wunderground PWS Mod,2013-04-25 17:03:00,
2013-04-25 13:13:00,58.2,29.2,30.24,North,354,2.0,12.0,33,0.00,,,0.00,Wunderground PWS Mod,2013-04-25 17:13:00,
2013-04-25 13:18:00,58.0,29.0,30.23,North,0,4.0,15.0,33,0.00,,,0.01,Wunderground PWS Mod,2013-04-25 17:18:00,
2013-04-25 13:24:00,58.0,29.0,30.23,NNW,348,5.0,12.0,33,0.00,,,0.00,Wunderground PWS Mod,2013-04-25 17:24:00,
2013-04-25 13:33:00,58.4,29.4,30.23,NNW,333,4.0,12.0,33,0.00,,,0.00,Wunderground PWS Mod,2013-04-25 17:33:00,
2013-04-25 13:44:00,59.0,26.8,30.23,NNE,27,6.0,15.0,29,0.00,,,0.00,Wunderground PWS Mod,2013-04-25 17:44:00,
2013-04-25 13:46:00,58.0,29.0,30.23,North,0,4.0,15.0,33,0.00,,,0.01,Wunderground PWS Mod,2013-04-25 17:46:00,
2013-04-25 13:53:00,58.8,26.6,30.23,NE,42,6.0,15.0,29,0.00,,,0.00,Wunderground PWS Mod,2013-04-25 17:53:00,
2013-04-25 14:04:00,59.2,27.7,30.22,North,358,3.0,15.0,30,0.00,,,0.00,Wunderground PWS Mod,2013-04-25 18:04:00,
2013-04-25 14:14:00,59.8,28.3,30.22,North,7,3.0,15.0,30,0.00,,,0.00,Wunderground PWS Mod,2013-04-25 18:14:00,
2013-04-25 14:16:00,60.1,26.0,30.22,North,0,5.0,13.0,27,0.00,,,0.01,Wunderground PWS Mod,2013-04-25 18:16:00,
2013-04-25 14:24:00,60.9,27.5,30.22,NNW,342,3.0,15.0,28,0.00,,,0.00,Wunderground PWS Mod,2013-04-25 18:24:00,
2013-04-25 14:34:00,60.2,26.9,30.22,NNW,348,7.0,15.0,28,0.00,,,0.00,Wunderground PWS Mod,2013-04-25 18:34:00,
2013-04-25 14:38:00,60.1,26.0,30.22,North,0,5.0,13.0,27,0.00,,,0.01,Wunderground PWS Mod,2013-04-25 18:38:00,
2013-04-25 14:44:00,60.4,28.0,30.21,NNE,26,4.0,15.0,29,0.00,,,0.00,Wunderground PWS Mod,2013-04-25 18:44:00,
2013-04-25 14:54:00,61.1,25.9,30.21,NNW,334,2.0,15.0,26,0.00,,,0.00,Wunderground PWS Mod,2013-04-25 18:54:00,
2013-04-25 15:03:00,61.5,26.3,30.21,West,273,2.0,13.0,26,0.00,,,0.00,Wunderground PWS Mod,2013-04-25 19:03:00,
2013-04-25 15:14:00,62.6,28.1,30.21,NNW,328,2.0,13.0,27,0.00,,,0.00,Wunderground PWS Mod,2013-04-25 19:14:00,
2013-04-25 15:18:00,62.4,26.1,30.20,NNW,338,4.0,10.0,25,0.00,,,0.01,Wunderground PWS Mod,2013-04-25 19:18:00,
2013-04-25 15:24:00,62.8,26.4,30.20,NNW,327,8.0,13.0,25,0.00,,,0.00,Wunderground PWS Mod,2013-04-25 19:24:00,
2013-04-25 15:33:00,62.1,26.8,30.20,North,0,1.0,13.0,26,0.00,,,0.00,Wunderground PWS Mod,2013-04-25 19:33:00,
2013-04-25 15:44:00,63.3,25.9,30.20,NNW,332,8.0,13.0,24,0.00,,,0.00,Wunderground PWS Mod,2013-04-25 19:44:00,
2013-04-25 15:46:00,62.4,26.1,30.20,NNW,338,4.0,10.0,25,0.00,,,0.01,Wunderground PWS Mod,2013-04-25 19:46:00,
2013-04-25 15:54:00,63.0,25.6,30.20,NW,325,3.0,13.0,24,0.00,,,0.00,Wunderground PWS Mod,2013-04-25 19:54:00,
2013-04-25 16:04:00,63.3,25.9,30.20,NNW,329,2.0,10.0,24,0.00,,,0.00,Wunderground PWS Mod,2013-04-25 20:04:00,
2013-04-25 16:14:00,63.2,25.8,30.20,NNE,25,0.0,11.0,24,0.00,,,0.00,Wunderground PWS Mod,2013-04-25 20:14:00,
2013-04-25 16:18:00,63.5,23.9,30.19,SSW,203,4.0,10.0,22,0.00,,,0.01,Wunderground PWS Mod,2013-04-25 20:18:00,
2013-04-25 16:24:00,63.7,26.2,30.19,WSW,243,5.0,11.0,24,0.00,,,0.00,Wunderground PWS Mod,2013-04-25 20:24:00,
2013-04-25 16:33:00,63.7,24.1,30.19,West,272,5.0,11.0,22,0.00,,,0.00,Wunderground PWS Mod,2013-04-25 20:33:00,
2013-04-25 16:44:00,63.6,22.9,30.19,WNW,284,6.0,11.0,21,0.00,,,0.00,Wunderground PWS Mod,2013-04-25 20:44:00,
2013-04-25 16:46:00,63.5,23.9,30.19,SSW,203,4.0,10.0,22,0.00,,,0.01,Wunderground PWS Mod,2013-04-25 20:46:00,
2013-04-25 16:53:00,64.2,24.5,30.19,North,6,1.0,11.0,22,0.00,,,0.00,Wunderground PWS Mod,2013-04-25 20:53:00,
2013-04-25 17:04:00,64.6,22.6,30.19,NW,318,2.0,10.0,20,0.00,,,0.00,Wunderground PWS Mod,2013-04-25 21:04:00,
2013-04-25 17:14:00,65.1,24.2,30.19,NNW,346,3.0,10.0,21,0.00,,,0.00,Wunderground PWS Mod,2013-04-25 21:14:00,
2013-04-25 17:16:00,63.8,23.1,30.20,West,270,4.0,10.0,21,0.00,,,0.01,Wunderground PWS Mod,2013-04-25 21:16:00,
2013-04-25 17:24:00,64.7,23.8,30.19,SW,222,2.0,10.0,21,0.00,,,0.00,Wunderground PWS Mod,2013-04-25 21:24:00,
2013-04-25 17:34:00,65.4,25.5,30.20,SW,220,1.0,10.0,22,0.00,,,0.00,Wunderground PWS Mod,2013-04-25 21:34:00,
2013-04-25 17:44:00,65.6,24.6,30.19,NW,315,1.0,10.0,21,0.00,,,0.00,Wunderground PWS Mod,2013-04-25 21:44:00,
2013-04-25 17:50:00,65.4,35.5,30.20,SW,225,3.0,8.0,33,0.00,,,0.01,Wunderground PWS Mod,2013-04-25 21:50:00,
2013-04-25 17:52:00,65.4,35.5,30.20,SW,225,3.0,8.0,33,0.00,,,0.01,Wunderground PWS Mod,2013-04-25 21:52:00,
2013-04-25 17:53:00,65.3,30.4,30.19,SE,143,6.0,10.0,27,0.00,,,0.00,Wunderground PWS Mod,2013-04-25 21:53:00,
2013-04-25 17:54:00,65.4,35.5,30.20,SW,225,3.0,8.0,33,0.00,,,0.01,Wunderground PWS Mod,2013-04-25 21:54:00,
2013-04-25 18:04:00,62.7,33.2,30.19,SSE,165,5.0,8.0,33,0.00,,,0.00,Wunderground PWS Mod,2013-04-25 22:04:00,
2013-04-25 18:14:00,61.5,32.1,30.19,SE,139,6.0,8.0,33,0.00,,,0.00,Wunderground PWS Mod,2013-04-25 22:14:00,
2013-04-25 18:20:00,61.5,33.6,30.20,SE,135,6.0,12.0,35,0.00,,,0.01,Wunderground PWS Mod,2013-04-25 22:20:00,
2013-04-25 18:22:00,61.5,33.6,30.20,SE,135,6.0,12.0,35,0.00,,,0.01,Wunderground PWS Mod,2013-04-25 22:22:00,
2013-04-25 18:24:00,61.2,32.6,30.20,ESE,115,5.0,8.0,34,0.00,,,0.00,Wunderground PWS Mod,2013-04-25 22:24:00,
2013-04-25 18:34:00,61.2,33.3,30.20,SE,131,6.0,9.0,35,0.00,,,0.00,Wunderground PWS Mod,2013-04-25 22:34:00,
2013-04-25 18:44:00,60.8,33.0,30.20,ESE,120,5.0,12.0,35,0.00,,,0.00,Wunderground PWS Mod,2013-04-25 22:44:00,
2013-04-25 18:46:00,61.5,33.6,30.20,SE,135,6.0,12.0,35,0.00,,,0.01,Wunderground PWS Mod,2013-04-25 22:46:00,
2013-04-25 18:54:00,61.0,31.7,30.20,South,183,5.0,12.0,33,0.00,,,0.00,Wunderground PWS Mod,2013-04-25 22:54:00,
2013-04-25 19:04:00,60.8,31.5,30.21,South,190,3.0,12.0,33,0.00,,,0.00,Wunderground PWS Mod,2013-04-25 23:04:00,
2013-04-25 19:14:00,60.0,31.5,30.21,South,175,4.0,12.0,34,0.00,,,0.00,Wunderground PWS Mod,2013-04-25 23:14:00,
2013-04-25 19:16:00,61.0,31.7,30.21,South,180,5.0,11.0,33,0.00,,,0.01,Wunderground PWS Mod,2013-04-25 23:16:00,
2013-04-25 19:23:00,59.2,31.5,30.21,South,182,8.0,12.0,35,0.00,,,0.00,Wunderground PWS Mod,2013-04-25 23:23:00,
2013-04-25 19:34:00,58.5,31.6,30.22,SSE,148,5.0,12.0,36,0.00,,,0.00,Wunderground PWS Mod,2013-04-25 23:34:00,
2013-04-25 19:44:00,58.1,31.9,30.21,SE,143,5.0,12.0,37,0.00,,,0.00,Wunderground PWS Mod,2013-04-25 23:44:00,
2013-04-25 19:48:00,58.0,33.2,30.22,SE,135,4.0,9.0,39,0.00,,,0.01,Wunderground PWS Mod,2013-04-25 23:48:00,
2013-04-25 19:54:00,57.7,32.2,30.21,SE,146,4.0,12.0,38,0.00,,,0.00,Wunderground PWS Mod,2013-04-25 23:54:00,
2013-04-25 20:03:00,57.3,33.2,30.22,SE,135,2.0,10.0,40,0.00,,,0.00,Wunderground PWS Mod,2013-04-26 00:03:00,
2013-04-25 20:14:00,56.9,33.4,30.22,SE,143,3.0,10.0,41,0.00,,,0.00,Wunderground PWS Mod,2013-04-26 00:14:00,
2013-04-25 20:18:00,56.9,35.2,30.23,SE,135,3.0,6.0,44,0.00,,,0.01,Wunderground PWS Mod,2013-04-26 00:18:00,
2013-04-25 20:24:00,57.1,33.6,30.22,SE,143,3.0,10.0,41,0.00,,,0.00,Wunderground PWS Mod,2013-04-26 00:24:00,
2013-04-25 20:33:00,56.2,34.6,30.22,SE,143,3.0,10.0,44,0.00,,,0.00,Wunderground PWS Mod,2013-04-26 00:33:00,
2013-04-25 20:44:00,55.8,34.8,30.23,SE,143,2.0,10.0,45,0.00,,,0.00,Wunderground PWS Mod,2013-04-26 00:44:00,
2013-04-25 20:46:00,56.9,35.2,30.23,SE,135,3.0,6.0,44,0.00,,,0.01,Wunderground PWS Mod,2013-04-26 00:46:00,
2013-04-25 20:53:00,55.5,35.0,30.23,SE,143,3.0,10.0,46,0.00,,,0.00,Wunderground PWS Mod,2013-04-26 00:53:00,
2013-04-25 21:04:00,55.1,35.2,30.24,SE,144,3.0,6.0,47,0.00,,,0.00,Wunderground PWS Mod,2013-04-26 01:04:00,
2013-04-25 21:14:00,54.7,35.4,30.24,SE,144,3.0,6.0,48,0.00,,,0.00,Wunderground PWS Mod,2013-04-26 01:14:00,
2013-04-25 21:18:00,54.5,35.7,30.26,SE,135,2.0,4.0,49,0.00,,,0.01,Wunderground PWS Mod,2013-04-26 01:18:00,
2013-04-25 21:23:00,54.2,35.4,30.25,SE,144,2.0,6.0,49,0.00,,,0.00,Wunderground PWS Mod,2013-04-26 01:23:00,
2013-04-25 21:34:00,53.9,35.2,30.26,SE,144,2.0,6.0,49,0.00,,,0.00,Wunderground PWS Mod,2013-04-26 01:34:00,
2013-04-25 21:43:00,53.6,35.4,30.26,SE,144,1.0,6.0,50,0.00,,,0.00,Wunderground PWS Mod,2013-04-26 01:43:00,
2013-04-25 21:48:00,53.8,36.1,30.26,SE,135,2.0,3.0,51,0.00,,,0.01,Wunderground PWS Mod,2013-04-26 01:48:00,
2013-04-25 21:54:00,53.8,36.1,30.26,SE,144,1.0,6.0,51,0.00,,,0.00,Wunderground PWS Mod,2013-04-26 01:54:00,
2013-04-25 22:03:00,54.2,36.5,30.27,SE,144,1.0,4.0,51,0.00,,,0.00,Wunderground PWS Mod,2013-04-26 02:03:00,
2013-04-25 22:13:00,54.5,37.2,30.27,SE,144,2.0,4.0,52,0.00,,,0.00,Wunderground PWS Mod,2013-04-26 02:13:00,
2013-04-25 22:16:00,53.8,36.1,30.26,SE,135,2.0,3.0,51,0.00,,,0.01,Wunderground PWS Mod,2013-04-26 02:16:00,
2013-04-25 22:24:00,54.5,37.2,30.27,SE,144,0.0,4.0,52,0.00,,,0.00,Wunderground PWS Mod,2013-04-26 02:24:00,
2013-04-25 22:33:00,54.7,37.4,30.27,SE,144,1.0,4.0,52,0.00,,,0.00,Wunderground PWS Mod,2013-04-26 02:33:00,
2013-04-25 22:44:00,53.4,37.2,30.27,SE,144,0.0,4.0,54,0.00,,,0.00,Wunderground PWS Mod,2013-04-26 02:44:00,
2013-04-25 22:48:00,53.0,37.7,30.28,SE,135,1.0,2.0,56,0.00,,,0.01,Wunderground PWS Mod,2013-04-26 02:48:00,
2013-04-25 22:53:00,52.1,36.4,30.27,SE,144,0.0,4.0,55,0.00,,,0.00,Wunderground PWS Mod,2013-04-26 02:53:00,
2013-04-25 23:04:00,52.1,36.9,30.28,SE,144,1.0,2.0,56,0.00,,,0.00,Wunderground PWS Mod,2013-04-26 03:04:00,
2013-04-25 23:14:00,51.9,36.7,30.28,SE,144,0.0,2.0,56,0.00,,,0.00,Wunderground PWS Mod,2013-04-26 03:14:00,
2013-04-25 23:18:00,51.8,37.9,30.29,SE,135,0.0,2.0,59,0.00,,,0.01,Wunderground PWS Mod,2013-04-26 03:18:00,
2013-04-25 23:23:00,51.6,37.3,30.29,SE,144,0.0,2.0,58,0.00,,,0.00,Wunderground PWS Mod,2013-04-26 03:23:00,
2013-04-25 23:34:00,51.0,37.6,30.29,SE,144,1.0,2.0,60,0.00,,,0.00,Wunderground PWS Mod,2013-04-26 03:34:00,
2013-04-25 23:43:00,50.6,37.2,30.29,SE,144,0.0,2.0,60,0.00,,,0.00,Wunderground PWS Mod,2013-04-26 03:43:00,
2013-04-25 23:46:00,51.8,37.9,30.29,SE,135,0.0,2.0,59,0.00,,,0.01,Wunderground PWS Mod,2013-04-26 03:46:00,
2013-04-25 23:54:00,50.1,37.6,30.30,SE,144,1.0,2.0,62,0.00,,,0.00,Wunderground PWS Mod,2013-04-26 03:54:00,